Location: Cayabut
(11.9096°N, 124.3126°E)
Time: 16:16:41
(UTC+00:00)

Daily predictions for brighter satellites

Satellite Brightness Start Highest point End
(mag) Time Altitude Azimuth Time Altitude Azimuth Time Altitude Azimuth
Milstar 3 4.4 18:35:13 29° NE 18:35:13 29° NE 18:38:02 10° ENE
Centaur D-1AR AC-36 3.5 19:06:40 71° NNW 19:07:20 74° NNE 19:56:23 10° ESE
Centaur D-1AR AC-36 3.5 19:06:41 71° NNW 19:07:21 74° NNE 19:56:23 10° ESE
Centaur D-1AR AC-36 3.5 19:06:40 71° NNW 19:07:21 74° NNE 19:56:24 10° ESE
SL-16 R/B 3.5 19:13:49 17° SSE 19:17:38 38° ESE 19:22:48 10° NE
Cosmos 1844 Rocket 3.7 19:20:44 40° SE 19:20:44 40° SE 19:24:18 10° SSE
PAYLOAD A 4.3 19:29:12 10° NNE 19:34:11 65° ESE 19:39:23 10° S
H-II Stage 2 3.3 19:35:55 66° NW 19:37:00 86° NNE 20:06:20 10° ESE
SEDSat Delta rocket 4.3 19:40:58 35° SSE 19:40:58 35° SSE 19:44:23 10° SE
Meteor 1-31 Rocket 4.0 19:41:10 10° NNE 19:44:44 40° E 19:48:19 10° S
Cosmos 1844 3.5 19:51:07 65° NW 19:51:50 74° WSW 19:57:29 10° S
Cosmos 2327 Rocket 4.4 19:49:34 10° S 19:55:54 89° E 20:02:09 10° N
Cosmos 2154 Rocket 4.2 19:51:14 10° S 19:57:24 72° E 20:03:33 10° N
Cosmos 676 Rocket 4.1 19:59:06 53° NW 19:59:06 53° NW 20:03:35 10° N
Ariane H10+ 4.0 19:58:31 28° SSW 19:58:46 29° SSW 20:01:59 10° SE
Meteor 1-22 Rocket 4.2 20:02:55 48° WSW 20:02:55 48° WSW 20:07:31 10° S
Cosmos 1610 Rocket 4.4 19:58:40 10° S 20:04:52 85° W 20:11:09 10° N
Cosmos 2184 Rocket 4.1 20:00:53 10° SSW 20:06:47 48° W 20:12:44 10° NNW
SWIFT 4.1 20:07:56 19° SSW 20:07:56 19° SSW 20:10:40 10° SSE
In-Cosmos 22 4.3 20:05:40 10° S 20:10:54 70° E 20:16:12 10° NNE
CZ-4B R/B 3.9 20:09:46 10° N 20:13:56 68° WNW 20:18:17 10° SSW
CZ-2C R/B 2.5 20:09:36 10° N 20:14:35 53° WNW 20:19:27 10° SSW
DELTA 2 R/B (1) 3.5 20:14:30 33° WSW 20:17:02 71° NW 20:22:33 10° NE
Milstar 3 Cent rocket 3.5 20:17:10 23° NW 20:18:27 25° NNW 20:22:33 10° NNE
Ariane H10+ 3.1 20:18:20 25° SSW 20:18:34 25° S 20:21:11 10° ESE
GPS 2-15 Rocket1 3.0 20:20:18 36° WSW 20:22:11 88° NNW 20:26:55 10° ENE
Cosmos 2341 Rocket 4.4 20:17:35 10° S 20:23:49 67° E 20:30:00 10° NNE
ARIANE DEB (SPELDA) 4.2 20:23:20 12° SSW 20:24:07 13° SSW 20:25:29 10° SSE
Cosmos 1437 Rocket 2.6 20:26:57 10° S 20:30:46 87° W 20:34:33 10° N
Okean 1-7 Rocket 3.5 20:26:50 10° SSW 20:31:10 63° W 20:35:33 10° N
CZ-4B DEB 4.5 20:28:05 10° NNE 20:33:31 72° ESE 20:38:56 10° S
Mugunghwa Rocket 4.4 20:30:21 14° WSW 20:36:28 81° SSE 20:44:16 10° ENE
Cosmos 1850 Rocket 3.9 20:31:35 10° SSW 20:36:46 73° WNW 20:41:55 10° N
Aurora 2 Rocket 3.1 20:32:17 15° WSW 20:37:57 79° SSE 20:42:36 10° ENE
ATLAS V CENTAUR R/B 4.4 20:39:10 18° WSW 20:41:38 42° S 20:54:54 10° ESE
H-2A R/B 4.5 20:38:49 10° SW 20:42:24 14° S 20:49:02 10° SSE
PAYLOAD B 4.4 20:37:38 10° NNE 20:43:09 80° ESE 20:48:39 10° S
CENTAUR R/B 4.3 20:41:56 10° N 20:50:12 49° ENE 20:58:21 10° SE
SL-8 Rocket 4.1 20:44:39 10° S 20:50:53 81° E 20:57:04 10° N
CZ-4B R/B 3.6 20:45:50 10° NNE 20:51:04 66° ESE 20:56:22 10° S
PSLV R/B 4.5 20:52:10 10° NNW 20:55:23 29° WNW 20:58:38 10° SW
Meteor 1-24 Rocket 3.9 20:50:59 10° S 20:56:30 80° E 21:02:15 10° N
Cosmos 2366 rocket 4.4 20:53:14 10° S 20:59:31 72° E 21:05:50 10° N
ISS -2.4 20:57:42 10° SSW 21:00:55 42° SE 21:04:06 10° NE
Cosmos 1603 3.6 20:55:35 10° SSW 21:01:11 83° WNW 21:06:47 10° NNE
GPS 2-17 Rocket1 4.3 20:57:38 10° NW 21:01:23 28° N 21:05:06 10° ENE
SL-16 R/B 3.6 20:58:20 10° WSW 21:01:36 16° WNW 21:04:54 10° NNW
Fermi 4.1 20:58:18 12° WNW 21:01:55 52° SSW 21:05:54 10° SE
GPS 2-04 Rocket1 2.8 20:58:17 10° WSW 21:02:28 67° NW 21:06:37 10° NE
Cosmos 1953 2.8 20:59:53 10° NNW 21:03:35 38° W 21:07:17 10° SSW
Cosmos 2228 2.9 21:00:36 10° NNW 21:04:46 65° W 21:08:57 10° S
Cosmos 1602 Rocket 3.9 21:02:37 10° S 21:06:58 73° E 21:11:16 10° N
Cosmos 1726 Rocket 3.5 21:03:07 10° NNW 21:07:22 66° W 21:11:40 10° S
USA 238 DEB 4.2 21:01:22 10° NW 21:08:22 46° WSW 21:15:25 10° S
USA 238 4.2 21:01:28 10° NW 21:08:28 46° WSW 21:15:32 10° S
GPS 2-05 Rocket1 2.9 21:06:00 10° NW 21:08:40 49° NE 21:11:20 10° ESE
Ariane H10+ 4.4 20:54:21 10° W 21:08:45 30° SSW 21:14:08 10° SE
Cosmos 921 Rocket 4.4 21:10:38 10° WNW 21:13:20 17° W 21:16:01 10° SW
Milstar 3 4.1 21:09:53 10° WNW 21:15:26 25° N 21:21:10 10° NE
FENGYUN 3A 3.7 21:11:16 10° N 21:16:37 64° WNW 21:21:59 10° SSW
